Year,Month,Day,Hour,Minute,Value (Times are PST for temperature in C)
2018,07,23,00,00,22.30
2018,07,23,00,01,22.30
2018,07,23,00,02,22.20
2018,07,23,00,03,22.20
2018,07,23,00,04,22.10
2018,07,23,00,05,22.10
2018,07,23,00,06,22.00
2018,07,23,00,07,21.90
2018,07,23,00,08,21.90
2018,07,23,00,09,21.80
2018,07,23,00,10,21.70
2018,07,23,00,11,21.60
2018,07,23,00,12,21.60
2018,07,23,00,13,21.50
2018,07,23,00,14,21.40
2018,07,23,00,15,21.30
2018,07,23,00,16,21.30
2018,07,23,00,17,21.30
2018,07,23,00,18,21.20
2018,07,23,00,19,21.10
2018,07,23,00,20,21.10
2018,07,23,00,21,21.00
2018,07,23,00,22,21.00
2018,07,23,00,23,20.90
2018,07,23,00,24,20.80
2018,07,23,00,25,20.80
2018,07,23,00,26,20.70
2018,07,23,00,27,20.70
2018,07,23,00,28,20.50
2018,07,23,00,29,20.50
2018,07,23,00,30,20.40
2018,07,23,00,31,20.30
2018,07,23,00,32,20.20
2018,07,23,00,33,20.20
2018,07,23,00,34,20.10
2018,07,23,00,35,20.10
2018,07,23,00,36,20.00
2018,07,23,00,37,19.90
2018,07,23,00,38,19.90
2018,07,23,00,39,19.90
2018,07,23,00,40,19.80
2018,07,23,00,41,19.80
2018,07,23,00,42,19.70
2018,07,23,00,43,19.70
2018,07,23,00,44,19.60
2018,07,23,00,45,19.60
2018,07,23,00,46,19.50
2018,07,23,00,47,19.50
2018,07,23,00,48,19.50
2018,07,23,00,49,19.40
2018,07,23,00,50,19.40
2018,07,23,00,51,19.30
2018,07,23,00,52,19.30
2018,07,23,00,53,19.30
2018,07,23,00,54,19.20
2018,07,23,00,55,19.20
2018,07,23,00,56,19.10
2018,07,23,00,57,19.10
2018,07,23,00,58,19.10
2018,07,23,00,59,19.10
2018,07,23,01,00,19.00
2018,07,23,01,01,18.90
2018,07,23,01,02,18.90
2018,07,23,01,03,18.90
2018,07,23,01,04,18.90
2018,07,23,01,05,18.80
2018,07,23,01,06,18.80
2018,07,23,01,07,18.70
2018,07,23,01,08,18.70
2018,07,23,01,09,18.70
2018,07,23,01,10,18.60
2018,07,23,01,11,18.60
2018,07,23,01,12,18.60
2018,07,23,01,13,18.50
2018,07,23,01,14,18.50
2018,07,23,01,15,18.50
2018,07,23,01,16,18.40
2018,07,23,01,17,18.40
2018,07,23,01,18,18.40
2018,07,23,01,19,18.30
2018,07,23,01,20,18.30
2018,07,23,01,21,18.30
2018,07,23,01,22,18.20
2018,07,23,01,23,18.20
2018,07,23,01,24,18.20
2018,07,23,01,25,18.20
2018,07,23,01,26,18.20
2018,07,23,01,27,18.20
2018,07,23,01,28,18.10
2018,07,23,01,29,18.10
2018,07,23,01,30,18.10
2018,07,23,01,31,18.00
2018,07,23,01,32,17.90
2018,07,23,01,33,17.90
2018,07,23,01,34,17.90
2018,07,23,01,35,17.90
2018,07,23,01,36,17.90
2018,07,23,01,37,17.80
2018,07,23,01,38,17.80
2018,07,23,01,39,17.80
2018,07,23,01,40,17.70
2018,07,23,01,41,17.70
2018,07,23,01,42,17.60
2018,07,23,01,43,17.60
2018,07,23,01,44,17.60
2018,07,23,01,45,17.50
2018,07,23,01,46,17.50
2018,07,23,01,47,17.40
2018,07,23,01,48,17.40
2018,07,23,01,49,17.30
2018,07,23,01,50,17.30
2018,07,23,01,51,17.30
2018,07,23,01,52,17.30
2018,07,23,01,53,17.30
2018,07,23,01,54,17.30
2018,07,23,01,55,17.30
2018,07,23,01,56,17.20
2018,07,23,01,57,17.20
2018,07,23,01,58,17.20
2018,07,23,01,59,17.20
2018,07,23,02,00,17.10
2018,07,23,02,01,17.10
2018,07,23,02,02,17.10
2018,07,23,02,03,17.10
2018,07,23,02,04,17.00
2018,07,23,02,05,17.00
2018,07,23,02,06,17.00
2018,07,23,02,07,17.00
2018,07,23,02,08,16.90
2018,07,23,02,09,16.90
2018,07,23,02,10,16.90
2018,07,23,02,11,16.90
2018,07,23,02,12,16.90
2018,07,23,02,13,16.80
2018,07,23,02,14,16.80
2018,07,23,02,15,16.80
2018,07,23,02,16,16.70
2018,07,23,02,17,16.70
2018,07,23,02,18,16.70
2018,07,23,02,19,16.70
2018,07,23,02,20,16.70
2018,07,23,02,21,16.70
2018,07,23,02,22,16.70
2018,07,23,02,23,16.70
2018,07,23,02,24,16.70
2018,07,23,02,25,16.70
2018,07,23,02,26,16.70
2018,07,23,02,27,16.70
2018,07,23,02,28,16.70
2018,07,23,02,29,16.60
2018,07,23,02,30,16.60
2018,07,23,02,31,16.60
2018,07,23,02,32,16.60
2018,07,23,02,33,16.50
2018,07,23,02,34,16.40
2018,07,23,02,35,16.40
2018,07,23,02,36,16.40
2018,07,23,02,37,16.40
2018,07,23,02,38,16.40
2018,07,23,02,39,16.40
2018,07,23,02,40,16.40
2018,07,23,02,41,16.40
2018,07,23,02,42,16.40
2018,07,23,02,43,16.40
2018,07,23,02,44,16.40
2018,07,23,02,45,16.40
2018,07,23,02,46,16.40
2018,07,23,02,47,16.40
2018,07,23,02,48,16.40
2018,07,23,02,49,16.40
2018,07,23,02,50,16.40
2018,07,23,02,51,16.40
2018,07,23,02,52,16.40
2018,07,23,02,53,16.40
2018,07,23,02,54,16.40
2018,07,23,02,55,16.40
2018,07,23,02,56,16.30
2018,07,23,02,57,16.30
2018,07,23,02,58,16.30
2018,07,23,02,59,16.30
2018,07,23,03,00,16.30
2018,07,23,03,01,16.20
2018,07,23,03,02,16.20
2018,07,23,03,03,16.20
2018,07,23,03,04,16.20
2018,07,23,03,05,16.10
2018,07,23,03,06,16.10
2018,07,23,03,07,16.10
2018,07,23,03,08,16.10
2018,07,23,03,09,16.10
2018,07,23,03,10,16.10
2018,07,23,03,11,16.10
2018,07,23,03,12,16.10
2018,07,23,03,13,16.10
2018,07,23,03,14,16.10
2018,07,23,03,15,16.10
2018,07,23,03,16,16.10
2018,07,23,03,17,16.10
2018,07,23,03,18,16.10
2018,07,23,03,19,16.10
2018,07,23,03,20,16.10
2018,07,23,03,21,16.10
2018,07,23,03,22,16.00
2018,07,23,03,23,15.90
2018,07,23,03,24,15.90
2018,07,23,03,25,15.90
2018,07,23,03,26,15.90
2018,07,23,03,27,15.90
2018,07,23,03,28,15.90
2018,07,23,03,29,15.90
2018,07,23,03,30,15.90
2018,07,23,03,31,15.90
2018,07,23,03,32,15.90
2018,07,23,03,33,15.90
2018,07,23,03,34,15.90
2018,07,23,03,35,15.80
2018,07,23,03,36,15.80
2018,07,23,03,37,15.80
2018,07,23,03,38,15.80
2018,07,23,03,39,15.80
2018,07,23,03,40,15.80
2018,07,23,03,41,15.80
2018,07,23,03,42,15.80
2018,07,23,03,43,15.80
2018,07,23,03,44,15.80
2018,07,23,03,45,15.80
2018,07,23,03,46,15.70
2018,07,23,03,47,15.70
2018,07,23,03,48,15.70
2018,07,23,03,49,15.70
2018,07,23,03,50,15.70
2018,07,23,03,51,15.70
2018,07,23,03,52,15.60
2018,07,23,03,53,15.60
2018,07,23,03,54,15.60
2018,07,23,03,55,15.60
2018,07,23,03,56,15.50
2018,07,23,03,57,15.50
2018,07,23,03,58,15.50
2018,07,23,03,59,15.50
2018,07,23,04,00,15.50
2018,07,23,04,01,15.50
2018,07,23,04,02,15.40
2018,07,23,04,03,15.40
2018,07,23,04,04,15.40
2018,07,23,04,05,15.40
2018,07,23,04,06,15.40
2018,07,23,04,07,15.40
2018,07,23,04,08,15.40
2018,07,23,04,09,15.40
2018,07,23,04,10,15.50
2018,07,23,04,11,15.50
2018,07,23,04,12,15.50
2018,07,23,04,13,15.50
2018,07,23,04,14,15.60
2018,07,23,04,15,15.50
2018,07,23,04,16,15.50
2018,07,23,04,17,15.50
2018,07,23,04,18,15.50
2018,07,23,04,19,15.50
2018,07,23,04,20,15.50
2018,07,23,04,21,15.50
2018,07,23,04,22,15.50
2018,07,23,04,23,15.50
2018,07,23,04,24,15.50
2018,07,23,04,25,15.50
2018,07,23,04,26,15.50
2018,07,23,04,27,15.40
2018,07,23,04,28,15.40
2018,07,23,04,29,15.40
2018,07,23,04,30,15.40
2018,07,23,04,31,15.40
2018,07,23,04,32,15.30
2018,07,23,04,33,15.30
2018,07,23,04,34,15.30
2018,07,23,04,35,15.30
2018,07,23,04,36,15.30
2018,07,23,04,37,15.30
2018,07,23,04,38,15.30
2018,07,23,04,39,15.30
2018,07,23,04,40,15.30
2018,07,23,04,41,15.30
2018,07,23,04,42,15.30
2018,07,23,04,43,15.30
2018,07,23,04,44,15.30
2018,07,23,04,45,15.30
2018,07,23,04,46,15.30
2018,07,23,04,47,15.30
2018,07,23,04,48,15.30
2018,07,23,04,49,15.30
2018,07,23,04,50,15.20
2018,07,23,04,51,15.20
2018,07,23,04,52,15.20
2018,07,23,04,53,15.20
2018,07,23,04,54,15.10
2018,07,23,04,55,15.10
2018,07,23,04,56,15.10
2018,07,23,04,57,15.10
2018,07,23,04,58,15.10
2018,07,23,04,59,15.00
2018,07,23,05,00,15.00
2018,07,23,05,01,15.00
2018,07,23,05,02,15.00
2018,07,23,05,03,14.90
2018,07,23,05,04,14.90
2018,07,23,05,05,14.90
2018,07,23,05,06,14.80
2018,07,23,05,07,14.80
2018,07,23,05,08,14.80
2018,07,23,05,09,14.80
2018,07,23,05,10,14.80
2018,07,23,05,11,14.80
2018,07,23,05,12,14.80
2018,07,23,05,13,14.70
2018,07,23,05,14,14.70
2018,07,23,05,15,14.70
2018,07,23,05,16,14.60
2018,07,23,05,17,14.60
2018,07,23,05,18,14.60
2018,07,23,05,19,14.60
2018,07,23,05,20,14.50
2018,07,23,05,21,14.50
2018,07,23,05,22,14.50
2018,07,23,05,23,14.50
2018,07,23,05,24,14.50
2018,07,23,05,25,14.50
2018,07,23,05,26,14.50
2018,07,23,05,27,14.50
2018,07,23,05,28,14.50
2018,07,23,05,29,14.40
2018,07,23,05,30,14.40
2018,07,23,05,31,14.40
2018,07,23,05,32,14.40
2018,07,23,05,33,14.40
2018,07,23,05,34,14.40
2018,07,23,05,35,14.30
2018,07,23,05,36,14.30
2018,07,23,05,37,14.30
2018,07,23,05,38,14.30
2018,07,23,05,39,14.30
2018,07,23,05,40,14.30
2018,07,23,05,41,14.30
2018,07,23,05,42,14.30
2018,07,23,05,43,14.30
2018,07,23,05,44,14.20
2018,07,23,05,45,14.20
2018,07,23,05,46,14.20
2018,07,23,05,47,14.20
2018,07,23,05,48,14.20
2018,07,23,05,49,14.20
2018,07,23,05,50,14.20
2018,07,23,05,51,14.20
2018,07,23,05,52,14.20
2018,07,23,05,53,14.20
2018,07,23,05,54,14.20
2018,07,23,05,55,14.10
2018,07,23,05,56,14.10
2018,07,23,05,57,14.10
2018,07,23,05,58,14.10
2018,07,23,05,59,14.10
2018,07,23,06,00,14.10
2018,07,23,06,01,14.10
2018,07,23,06,02,14.10
2018,07,23,06,03,14.10
2018,07,23,06,04,14.00
2018,07,23,06,05,14.00
2018,07,23,06,06,14.00
2018,07,23,06,07,14.00
2018,07,23,06,08,14.00
2018,07,23,06,09,14.00
2018,07,23,06,10,14.00
2018,07,23,06,11,14.00
2018,07,23,06,12,14.00
2018,07,23,06,13,14.00
2018,07,23,06,14,14.00
2018,07,23,06,15,14.00
2018,07,23,06,16,14.00
2018,07,23,06,17,14.00
2018,07,23,06,18,14.10
2018,07,23,06,19,14.10
2018,07,23,06,20,14.10
2018,07,23,06,21,14.10
2018,07,23,06,22,14.10
2018,07,23,06,23,14.10
2018,07,23,06,24,14.20
2018,07,23,06,25,14.20
2018,07,23,06,26,14.20
2018,07,23,06,27,14.20
2018,07,23,06,28,14.20
2018,07,23,06,29,14.30
2018,07,23,06,30,14.30
2018,07,23,06,31,14.40
2018,07,23,06,32,14.50
2018,07,23,06,33,14.50
2018,07,23,06,34,14.60
2018,07,23,06,35,14.70
2018,07,23,06,36,14.70
2018,07,23,06,37,14.80
2018,07,23,06,38,14.90
2018,07,23,06,39,15.00
2018,07,23,06,40,15.00
2018,07,23,06,41,15.10
2018,07,23,06,42,15.20
2018,07,23,06,43,15.30
2018,07,23,06,44,15.30
2018,07,23,06,45,15.30
2018,07,23,06,46,15.40
2018,07,23,06,47,15.50
2018,07,23,06,48,15.60
2018,07,23,06,49,15.70
2018,07,23,06,50,15.80
2018,07,23,06,51,15.80
2018,07,23,06,52,16.00
2018,07,23,06,53,16.10
2018,07,23,06,54,16.20
2018,07,23,06,55,16.30
2018,07,23,06,56,16.40
2018,07,23,06,57,16.40
2018,07,23,06,58,16.60
2018,07,23,06,59,16.60
2018,07,23,07,00,16.70
2018,07,23,07,01,16.70
2018,07,23,07,02,16.80
2018,07,23,07,03,16.90
2018,07,23,07,04,17.00
2018,07,23,07,05,17.10
2018,07,23,07,06,17.20
2018,07,23,07,07,17.30
2018,07,23,07,08,17.40
2018,07,23,07,09,17.50
2018,07,23,07,10,17.50
2018,07,23,07,11,17.70
2018,07,23,07,12,17.70
2018,07,23,07,13,17.80
2018,07,23,07,14,17.90
2018,07,23,07,15,17.90
2018,07,23,07,16,18.00
2018,07,23,07,17,18.10
2018,07,23,07,18,18.10
2018,07,23,07,19,18.20
2018,07,23,07,20,18.20
2018,07,23,07,21,18.20
2018,07,23,07,22,18.20
2018,07,23,07,23,18.20
2018,07,23,07,24,18.20
2018,07,23,07,25,18.20
2018,07,23,07,26,18.30
2018,07,23,07,27,18.40
2018,07,23,07,28,18.50
2018,07,23,07,29,18.60
2018,07,23,07,30,18.60
2018,07,23,07,31,18.70
2018,07,23,07,32,18.80
2018,07,23,07,33,18.90
2018,07,23,07,34,19.00
2018,07,23,07,35,19.10
2018,07,23,07,36,19.20
2018,07,23,07,37,19.40
2018,07,23,07,38,19.50
2018,07,23,07,39,19.60
2018,07,23,07,40,19.70
2018,07,23,07,41,19.90
2018,07,23,07,42,20.10
2018,07,23,07,43,20.20
2018,07,23,07,44,20.40
2018,07,23,07,45,20.50
2018,07,23,07,46,20.60
2018,07,23,07,47,20.80
2018,07,23,07,48,20.90
2018,07,23,07,49,21.10
2018,07,23,07,50,21.20
2018,07,23,07,51,21.30
2018,07,23,07,52,21.30
2018,07,23,07,53,21.40
2018,07,23,07,54,21.50
2018,07,23,07,55,21.60
2018,07,23,07,56,21.70
2018,07,23,07,57,21.70
2018,07,23,07,58,21.80
2018,07,23,07,59,21.80
2018,07,23,08,00,21.80
2018,07,23,08,01,21.70
2018,07,23,08,02,21.60
2018,07,23,08,03,21.60
2018,07,23,08,04,21.60
2018,07,23,08,05,21.60
2018,07,23,08,06,21.60
2018,07,23,08,07,21.60
2018,07,23,08,08,21.60
2018,07,23,08,09,21.60
2018,07,23,08,10,21.70
2018,07,23,08,11,21.90
2018,07,23,08,12,21.90
2018,07,23,08,13,22.00
2018,07,23,08,14,22.00
2018,07,23,08,15,22.00
2018,07,23,08,16,22.00
2018,07,23,08,17,22.00
2018,07,23,08,18,21.90
2018,07,23,08,19,21.90
2018,07,23,08,20,21.80
2018,07,23,08,21,21.80
2018,07,23,08,22,21.70
2018,07,23,08,23,21.70
2018,07,23,08,24,21.70
2018,07,23,08,25,21.70
2018,07,23,08,26,21.70
2018,07,23,08,27,21.70
2018,07,23,08,28,21.70
2018,07,23,08,29,21.80
2018,07,23,08,30,21.90
2018,07,23,08,31,22.00
2018,07,23,08,32,22.00
2018,07,23,08,33,22.00
2018,07,23,08,34,22.00
2018,07,23,08,35,21.90
2018,07,23,08,36,21.90
2018,07,23,08,37,21.90
2018,07,23,08,38,21.90
2018,07,23,08,39,21.90
2018,07,23,08,40,22.00
2018,07,23,08,41,22.00
2018,07,23,08,42,22.10
2018,07,23,08,43,22.10
2018,07,23,08,44,22.10
2018,07,23,08,45,22.10
2018,07,23,08,46,22.10
2018,07,23,08,47,22.10
2018,07,23,08,48,22.10
2018,07,23,08,49,22.20
2018,07,23,08,50,22.20
2018,07,23,08,51,22.30
2018,07,23,08,52,22.50
2018,07,23,08,53,22.60
2018,07,23,08,54,22.70
2018,07,23,08,55,22.90
2018,07,23,08,56,23.00
2018,07,23,08,57,23.10
2018,07,23,08,58,23.10
2018,07,23,08,59,23.00
2018,07,23,09,00,22.90
2018,07,23,09,01,22.90
2018,07,23,09,02,22.80
2018,07,23,09,03,22.60
2018,07,23,09,04,22.60
2018,07,23,09,05,22.50
2018,07,23,09,06,22.50
2018,07,23,09,07,22.50
2018,07,23,09,08,22.50
2018,07,23,09,09,22.60
2018,07,23,09,10,22.60
2018,07,23,09,11,22.60
2018,07,23,09,12,22.60
2018,07,23,09,13,22.60
2018,07,23,09,14,22.70
2018,07,23,09,15,22.80
2018,07,23,09,16,22.90
2018,07,23,09,17,22.90
2018,07,23,09,18,22.90
2018,07,23,09,19,23.00
2018,07,23,09,20,23.10
2018,07,23,09,21,23.10
2018,07,23,09,22,23.10
2018,07,23,09,23,23.10
2018,07,23,09,24,23.10
2018,07,23,09,25,23.10
2018,07,23,09,26,23.10
2018,07,23,09,27,23.00
2018,07,23,09,28,22.80
2018,07,23,09,29,22.70
2018,07,23,09,30,22.70
2018,07,23,09,31,22.70
2018,07,23,09,32,22.60
2018,07,23,09,33,22.50
2018,07,23,09,34,22.40
2018,07,23,09,35,22.40
2018,07,23,09,36,22.40
2018,07,23,09,37,22.40
2018,07,23,09,38,22.30
2018,07,23,09,39,22.30
2018,07,23,09,40,22.20
2018,07,23,09,41,22.10
2018,07,23,09,42,22.10
2018,07,23,09,43,22.00
2018,07,23,09,44,22.10
2018,07,23,09,45,22.20
2018,07,23,09,46,22.30
2018,07,23,09,47,22.30
2018,07,23,09,48,22.40
2018,07,23,09,49,22.50
2018,07,23,09,50,22.60
2018,07,23,09,51,22.70
2018,07,23,09,52,22.80
2018,07,23,09,53,22.90
2018,07,23,09,54,23.00
2018,07,23,09,55,23.20
2018,07,23,09,56,23.30
2018,07,23,09,57,23.40
2018,07,23,09,58,23.60
2018,07,23,09,59,23.70
2018,07,23,10,00,23.70
2018,07,23,10,01,23.90
2018,07,23,10,02,24.00
2018,07,23,10,03,24.10
2018,07,23,10,04,24.20
2018,07,23,10,05,24.30
2018,07,23,10,06,24.30
2018,07,23,10,07,24.30
2018,07,23,10,08,24.10
2018,07,23,10,09,24.10
2018,07,23,10,10,24.10
2018,07,23,10,11,24.20
2018,07,23,10,12,24.30
2018,07,23,10,13,24.30
2018,07,23,10,14,24.20
2018,07,23,10,15,24.20
2018,07,23,10,16,24.10
2018,07,23,10,17,24.00
2018,07,23,10,18,23.80
2018,07,23,10,19,23.70
2018,07,23,10,20,23.60
2018,07,23,10,21,23.60
2018,07,23,10,22,23.50
2018,07,23,10,23,23.40
2018,07,23,10,24,23.40
2018,07,23,10,25,23.30
2018,07,23,10,26,23.30
2018,07,23,10,27,23.20
2018,07,23,10,28,23.20
2018,07,23,10,29,23.30
2018,07,23,10,30,23.30
2018,07,23,10,31,23.30
2018,07,23,10,32,23.40
2018,07,23,10,33,23.50
2018,07,23,10,34,23.60
2018,07,23,10,35,23.70
2018,07,23,10,36,23.70
2018,07,23,10,37,23.70
2018,07,23,10,38,23.60
2018,07,23,10,39,23.60
2018,07,23,10,40,23.60
2018,07,23,10,41,23.60
2018,07,23,10,42,23.50
2018,07,23,10,43,23.40
2018,07,23,10,44,23.30
2018,07,23,10,45,23.20
2018,07,23,10,46,23.10
2018,07,23,10,47,23.10
2018,07,23,10,48,22.90
2018,07,23,10,49,22.90
2018,07,23,10,50,22.90
2018,07,23,10,51,22.90
2018,07,23,10,52,23.00
2018,07,23,10,53,22.90
2018,07,23,10,54,22.90
2018,07,23,10,55,22.90
2018,07,23,10,56,22.90
2018,07,23,10,57,22.90
2018,07,23,10,58,22.90
2018,07,23,10,59,22.90
2018,07,23,11,00,22.90
2018,07,23,11,01,22.90
2018,07,23,11,02,22.80
2018,07,23,11,03,22.80
2018,07,23,11,04,22.80
2018,07,23,11,05,22.80
2018,07,23,11,06,22.70
2018,07,23,11,07,22.70
2018,07,23,11,08,22.80
2018,07,23,11,09,22.90
2018,07,23,11,10,22.90
2018,07,23,11,11,22.90
2018,07,23,11,12,22.90
2018,07,23,11,13,22.90
2018,07,23,11,14,22.90
2018,07,23,11,15,22.90
2018,07,23,11,16,22.90
2018,07,23,11,17,22.90
2018,07,23,11,18,22.90
2018,07,23,11,19,22.90
2018,07,23,11,20,23.10
2018,07,23,11,21,23.20
2018,07,23,11,22,23.30
2018,07,23,11,23,23.30
2018,07,23,11,24,23.20
2018,07,23,11,25,23.10
2018,07,23,11,26,23.20
2018,07,23,11,27,23.20
2018,07,23,11,28,23.30
2018,07,23,11,29,23.40
2018,07,23,11,30,23.60
2018,07,23,11,31,23.70
2018,07,23,11,32,23.70
2018,07,23,11,33,23.90
2018,07,23,11,34,24.00
2018,07,23,11,35,24.10
2018,07,23,11,36,24.10
2018,07,23,11,37,24.00
2018,07,23,11,38,23.90
2018,07,23,11,39,23.70
2018,07,23,11,40,23.60
2018,07,23,11,41,23.40
2018,07,23,11,42,23.50
2018,07,23,11,43,23.60
2018,07,23,11,44,23.70
2018,07,23,11,45,23.70
2018,07,23,11,46,23.70
2018,07,23,11,47,23.60
2018,07,23,11,48,23.60
2018,07,23,11,49,23.50
2018,07,23,11,50,23.40
2018,07,23,11,51,23.30
2018,07,23,11,52,23.40
2018,07,23,11,53,23.40
2018,07,23,11,54,23.30
2018,07,23,11,55,23.10
2018,07,23,11,56,23.10
2018,07,23,11,57,23.10
2018,07,23,11,58,23.10
2018,07,23,11,59,23.20
2018,07,23,12,00,23.20
2018,07,23,12,01,23.20
2018,07,23,12,02,23.30
2018,07,23,12,03,23.40
2018,07,23,12,04,23.60
2018,07,23,12,05,23.80
2018,07,23,12,06,24.10
2018,07,23,12,07,24.30
2018,07,23,12,08,24.50
2018,07,23,12,09,24.50
2018,07,23,12,10,24.60
2018,07,23,12,11,24.60
2018,07,23,12,12,24.70
2018,07,23,12,13,24.60
2018,07,23,12,14,24.50
2018,07,23,12,15,24.50
2018,07,23,12,16,24.40
2018,07,23,12,17,24.30
2018,07,23,12,18,24.20
2018,07,23,12,19,24.10
2018,07,23,12,20,24.10
2018,07,23,12,21,24.10
2018,07,23,12,22,24.10
2018,07,23,12,23,24.10
2018,07,23,12,24,24.10
2018,07,23,12,25,24.20
2018,07,23,12,26,24.40
2018,07,23,12,27,24.50
2018,07,23,12,28,24.80
2018,07,23,12,29,24.90
2018,07,23,12,30,25.10
2018,07,23,12,31,25.30
2018,07,23,12,32,25.30
2018,07,23,12,33,25.10
2018,07,23,12,34,24.90
2018,07,23,12,35,24.80
2018,07,23,12,36,24.60
2018,07,23,12,37,24.50
2018,07,23,12,38,24.50
2018,07,23,12,39,24.50
2018,07,23,12,40,24.50
2018,07,23,12,41,24.50
2018,07,23,12,42,24.40
2018,07,23,12,43,24.40
2018,07,23,12,44,24.50
2018,07,23,12,45,24.40
2018,07,23,12,46,24.50
2018,07,23,12,47,24.50
2018,07,23,12,48,24.60
2018,07,23,12,49,24.60
2018,07,23,12,50,24.60
2018,07,23,12,51,24.60
2018,07,23,12,52,24.70
2018,07,23,12,53,24.80
2018,07,23,12,54,25.00
2018,07,23,12,55,25.20
2018,07,23,12,56,25.30
2018,07,23,12,57,25.40
2018,07,23,12,58,25.40
2018,07,23,12,59,25.40
2018,07,23,13,00,25.40
2018,07,23,13,01,25.30
2018,07,23,13,02,25.30
2018,07,23,13,03,25.30
2018,07,23,13,04,25.30
2018,07,23,13,05,25.30
2018,07,23,13,06,25.40
2018,07,23,13,07,25.50
2018,07,23,13,08,25.40
2018,07,23,13,09,25.40
2018,07,23,13,10,25.50
2018,07,23,13,11,25.60
2018,07,23,13,12,25.60
2018,07,23,13,13,25.50
2018,07,23,13,14,25.40
2018,07,23,13,15,25.30
2018,07,23,13,16,25.30
2018,07,23,13,17,25.30
2018,07,23,13,18,25.30
2018,07,23,13,19,25.30
2018,07,23,13,20,25.20
2018,07,23,13,21,25.10
2018,07,23,13,22,25.10
2018,07,23,13,23,25.10
2018,07,23,13,24,25.00
2018,07,23,13,25,25.00
2018,07,23,13,26,25.20
2018,07,23,13,27,25.30
2018,07,23,13,28,25.50
2018,07,23,13,29,25.70
2018,07,23,13,30,25.80
2018,07,23,13,31,25.90
2018,07,23,13,32,25.90
2018,07,23,13,33,26.00
2018,07,23,13,34,26.10
2018,07,23,13,35,26.30
2018,07,23,13,36,26.40
2018,07,23,13,37,26.60
2018,07,23,13,38,26.60
2018,07,23,13,39,26.60
2018,07,23,13,40,26.70
2018,07,23,13,41,26.70
2018,07,23,13,42,26.60
2018,07,23,13,43,26.40
2018,07,23,13,44,26.40
2018,07,23,13,45,26.20
2018,07,23,13,46,26.00
2018,07,23,13,47,25.90
2018,07,23,13,48,25.90
2018,07,23,13,49,25.90
2018,07,23,13,50,25.90
2018,07,23,13,51,25.90
2018,07,23,13,52,25.90
2018,07,23,13,53,26.00
2018,07,23,13,54,26.10
2018,07,23,13,55,26.10
2018,07,23,13,56,26.20
2018,07,23,13,57,26.30
2018,07,23,13,58,26.50
2018,07,23,13,59,26.60
2018,07,23,14,00,26.60
2018,07,23,14,01,26.60
2018,07,23,14,02,26.70
2018,07,23,14,03,26.70
2018,07,23,14,04,26.80
2018,07,23,14,05,26.90
2018,07,23,14,06,27.00
2018,07,23,14,07,27.20
2018,07,23,14,08,27.20
2018,07,23,14,09,27.30
2018,07,23,14,10,27.50
2018,07,23,14,11,27.60
2018,07,23,14,12,27.60
2018,07,23,14,13,27.60
2018,07,23,14,14,27.60
2018,07,23,14,15,27.70
2018,07,23,14,16,27.80
2018,07,23,14,17,27.90
2018,07,23,14,18,28.10
2018,07,23,14,19,28.20
2018,07,23,14,20,28.40
2018,07,23,14,21,28.60
2018,07,23,14,22,28.60
2018,07,23,14,23,28.60
2018,07,23,14,24,28.60
2018,07,23,14,25,28.70
2018,07,23,14,26,28.80
2018,07,23,14,27,28.90
2018,07,23,14,28,28.90
2018,07,23,14,29,29.00
2018,07,23,14,30,29.10
2018,07,23,14,31,29.10
2018,07,23,14,32,29.10
2018,07,23,14,33,29.00
2018,07,23,14,34,28.90
2018,07,23,14,35,28.90
2018,07,23,14,36,28.90
2018,07,23,14,37,28.80
2018,07,23,14,38,28.60
2018,07,23,14,39,28.40
2018,07,23,14,40,28.40
2018,07,23,14,41,28.40
2018,07,23,14,42,28.50
2018,07,23,14,43,28.60
2018,07,23,14,44,28.80
2018,07,23,14,45,28.90
2018,07,23,14,46,28.90
2018,07,23,14,47,28.90
2018,07,23,14,48,28.90
2018,07,23,14,49,28.70
2018,07,23,14,50,28.60
2018,07,23,14,51,28.60
2018,07,23,14,52,28.60
2018,07,23,14,53,28.70
2018,07,23,14,54,28.80
2018,07,23,14,55,28.90
2018,07,23,14,56,29.00
2018,07,23,14,57,29.20
2018,07,23,14,58,29.20
2018,07,23,14,59,29.30
2018,07,23,15,00,29.30
2018,07,23,15,01,29.30
2018,07,23,15,02,29.30
2018,07,23,15,03,29.40
2018,07,23,15,04,29.50
2018,07,23,15,05,29.50
2018,07,23,15,06,29.50
2018,07,23,15,07,29.50
2018,07,23,15,08,29.60
2018,07,23,15,09,29.60
2018,07,23,15,10,29.70
2018,07,23,15,11,29.80
2018,07,23,15,12,29.80
2018,07,23,15,13,29.90
2018,07,23,15,14,29.90
2018,07,23,15,15,30.00
2018,07,23,15,16,30.10
2018,07,23,15,17,30.10
2018,07,23,15,18,30.00
2018,07,23,15,19,29.90
2018,07,23,15,20,29.70
2018,07,23,15,21,29.60
2018,07,23,15,22,29.60
2018,07,23,15,23,29.50
2018,07,23,15,24,29.60
2018,07,23,15,25,29.60
2018,07,23,15,26,29.70
2018,07,23,15,27,29.80
2018,07,23,15,28,29.70
2018,07,23,15,29,29.80
2018,07,23,15,30,29.90
2018,07,23,15,31,29.90
2018,07,23,15,32,30.00
2018,07,23,15,33,30.10
2018,07,23,15,34,30.20
2018,07,23,15,35,30.20
2018,07,23,15,36,30.20
2018,07,23,15,37,30.30
2018,07,23,15,38,30.30
2018,07,23,15,39,30.20
2018,07,23,15,40,30.10
2018,07,23,15,41,29.90
2018,07,23,15,42,29.80
2018,07,23,15,43,29.90
2018,07,23,15,44,29.90
2018,07,23,15,45,29.80
2018,07,23,15,46,29.80
2018,07,23,15,47,29.90
2018,07,23,15,48,29.90
2018,07,23,15,49,30.00
2018,07,23,15,50,30.00
2018,07,23,15,51,30.00
2018,07,23,15,52,29.90
2018,07,23,15,53,29.80
2018,07,23,15,54,29.80
2018,07,23,15,55,29.80
2018,07,23,15,56,29.90
2018,07,23,15,57,30.00
2018,07,23,15,58,30.00
2018,07,23,15,59,29.90
2018,07,23,16,00,29.90
2018,07,23,16,01,29.80
2018,07,23,16,02,29.80
2018,07,23,16,03,29.70
2018,07,23,16,04,29.60
2018,07,23,16,05,29.60
2018,07,23,16,06,29.60
2018,07,23,16,07,29.70
2018,07,23,16,08,29.60
2018,07,23,16,09,29.60
2018,07,23,16,10,29.50
2018,07,23,16,11,29.60
2018,07,23,16,12,29.60
2018,07,23,16,13,29.60
2018,07,23,16,14,29.60
2018,07,23,16,15,29.70
2018,07,23,16,16,29.60
2018,07,23,16,17,29.60
2018,07,23,16,18,29.70
2018,07,23,16,19,29.80
2018,07,23,16,20,29.90
2018,07,23,16,21,29.90
2018,07,23,16,22,29.80
2018,07,23,16,23,29.70
2018,07,23,16,24,29.60
2018,07,23,16,25,29.40
2018,07,23,16,26,29.30
2018,07,23,16,27,29.20
2018,07,23,16,28,29.10
2018,07,23,16,29,29.00
2018,07,23,16,30,29.00
2018,07,23,16,31,29.10
2018,07,23,16,32,29.10
2018,07,23,16,33,29.10
2018,07,23,16,34,29.20
2018,07,23,16,35,29.20
2018,07,23,16,36,29.30
2018,07,23,16,37,29.30
2018,07,23,16,38,29.40
2018,07,23,16,39,29.30
2018,07,23,16,40,29.20
2018,07,23,16,41,29.20
2018,07,23,16,42,29.10
2018,07,23,16,43,29.10
2018,07,23,16,44,29.10
2018,07,23,16,45,29.10
2018,07,23,16,46,29.20
2018,07,23,16,47,29.20
2018,07,23,16,48,29.20
2018,07,23,16,49,29.20
2018,07,23,16,50,29.10
2018,07,23,16,51,29.10
2018,07,23,16,52,29.10
2018,07,23,16,53,29.00
2018,07,23,16,54,28.90
2018,07,23,16,55,28.80
2018,07,23,16,56,28.80
2018,07,23,16,57,28.80
2018,07,23,16,58,28.90
2018,07,23,16,59,28.80
2018,07,23,17,00,28.90
2018,07,23,17,01,28.90
2018,07,23,17,02,28.90
2018,07,23,17,03,28.90
2018,07,23,17,04,28.90
2018,07,23,17,05,28.90
2018,07,23,17,06,28.80
2018,07,23,17,07,28.80
2018,07,23,17,08,28.80
2018,07,23,17,09,28.90
2018,07,23,17,10,28.90
2018,07,23,17,11,28.90
2018,07,23,17,12,28.90
2018,07,23,17,13,28.90
2018,07,23,17,14,28.90
2018,07,23,17,15,28.90
2018,07,23,17,16,28.90
2018,07,23,17,17,28.90
2018,07,23,17,18,28.90
2018,07,23,17,19,28.90